Flag for Japan Weather past 2 weeks in Niigata, Japan

Now
39 °F

Sprinkles. Partly cloudy.


Feels Like: 27 °F
Forecast: 38 / 43 °F
Wind: 31 mph from Northwest

Location: Niigata Airport

Current Time: Dec 18, 2014 at 5:59:02 PM

Latest Report: Dec 18, 2014 at 5:00 PM


Visibility: N/A

Pressure: 30.09 "Hg

Humidity: 70%

Dew point: 30 °F

Location of NiigataLocation

Historic Weather in Niigata — Graph

°F

Niigata temperature yesterday

Maximum temperature yesterday: 36 °F (at 7:00 AM)
Minimum temperature yesterday: 32 °F (at 5:48 PM)
Average temperature yesterday: 34 °F

Past Weeks' High & Low Weather Summary

 TemperatureHumidityPressure
High48 °F (Dec 11, 1:00 PM)100% (Dec 4, 7:00 AM)30.42 "Hg (Dec 4, 7:00 AM)
Low30 °F (Dec 15, 9:00 PM)49% (Dec 9, 9:00 PM)29.39 "Hg (Dec 16, 8:00 PM)
Average38 °F84%29.93 "Hg
* Reported Dec 3 4:00 PM — Dec 18 4:03 PM, Niigata, Weather by CustomWeather, © 2014

Note: Actual official high and low records may vary slightly from our data, if they occured in-between our weather recording intervals... More about our weather records

Advertising

Niigata weather history for previous 24 hours

 ConditionsComfort  
Time TempWeatherWind HumidityBarometerVisibility
4:03 PM
Dec 18
39 °FScattered showers. Broken clouds.26 mph75%30.07 "HgN/A
4:00 PM39 °FScattered showers. Broken clouds.26 mph75%30.07 "HgN/A
3:00 PM36 °FSnow flurries. Broken clouds.25 mph93%30.04 "Hg1 mi
2:01 PM37 °FSnow flurries. Broken clouds.30 mph87%30.01 "Hg3 mi
2:00 PM37 °FSnow flurries. Broken clouds.31 mph87%30.01 "Hg3 mi
1:00 PM39 °FScattered showers. Broken clouds.31 mph75%29.95 "HgN/A
12:00 PM39 °FScattered showers. Broken clouds.29 mph70%29.92 "HgN/A
11:00 AM39 °FSnow flurries. Broken clouds.29 mph70%29.89 "Hg5 mi
10:45 AM37 °FSnow flurries. Broken clouds.24 mph93%29.92 "Hg4 mi
10:00 AM34 °FSnow showers. Dense fog.21 mph100%29.92 "Hg1 mi
9:00 AM37 °FSnow flurries. Broken clouds.25 mph75%29.86 "Hg5 mi
8:00 AM36 °FSnow flurries. Broken clouds.25 mph81%29.83 "Hg5 mi
7:00 AM36 °FSnow flurries. Broken clouds.25 mph81%29.80 "Hg4 mi
9:00 PM
Dec 17
32 °FSnow flurries. Partly cloudy.44 mph80%29.59 "Hg3 mi
8:01 PM34 °FSnow flurries. Partly cloudy.38 mph75%29.56 "HgN/A
8:00 PM34 °FSnow flurries. Partly cloudy.38 mph75%29.56 "HgN/A
7:02 PM34 °FSnow flurries. Passing clouds.36 mph81%29.53 "Hg1 mi
7:00 PM32 °FSnow flurries. Passing clouds.38 mph87%29.53 "Hg1 mi
6:01 PM32 °FSnow flurries. Partly cloudy.37 mph87%29.53 "Hg1 mi
6:00 PM32 °FSnow flurries. Partly cloudy.37 mph80%29.53 "Hg2 mi
5:48 PM32 °FSnow showers. Dense fog.33 mph93%29.53 "Hg1 mi
5:01 PM34 °FSnow flurries. Partly cloudy.37 mph87%29.50 "Hg3 mi
5:00 PM34 °FSnow flurries. Partly cloudy.38 mph81%29.50 "Hg3 mi
Weather by CustomWeather, © 2014

See weather overviewHow to use our weather pages